K7OLI-13 Weather Reports


time (UTC)temp
C
wind
direction
speed
KPH
gust
KPH
rain 1hr
cm
rain 24hr
cm
rain mn
cm
humidity
%
barometer
mb
20260502161035 12 241 6.4 9.7 0.00 0.00 0.00 83 1013.1
20260502152021 10 257 4.8 8.0 0.00 0.00 0.00 89 1013.1
20260502151210 10 266 4.8 6.4 0.00 0.00 0.00 89 1013.1
20260502123025 9 237 6.4 9.7 0.00 0.00 0.00 91 1013.1
20260502122033 9 235 6.4 9.7 0.00 0.00 0.00 91 1012.1
20260502121022 9 226 6.4 11.3 0.00 0.00 0.00 91 1012.1
20260502115021 9 215 4.8 6.4 0.00 0.00 0.00 92 1012.1
20260502114021 9 230 6.4 8.0 0.00 0.00 0.00 92 1012.1
20260502113035 9 222 6.4 8.0 0.00 0.00 0.00 92 1012.1
20260502112025 9 194 4.8 6.4 0.00 0.00 0.00 92 1012.2
20260502111033 9 175 3.2 4.8 0.00 0.00 0.00 93 1012.2
20260502110022 8 265 1.6 3.2 0.00 0.00 0.00 93 1012.2
20260502105030 9 0.0 0.0 0.00 0.00 0.00 92 1012.2
20260502104024 9 250 1.6 4.8 0.00 0.00 0.00 91 1012.2
20260502103028 10 224 3.2 4.8 0.00 0.00 0.00 90 1012.2
20260502102037 10 204 1.6 3.2 0.00 0.00 0.00 90 1012.2
20260502101025 10 203 3.2 6.4 0.00 0.00 0.00 90 1012.2
20260502091037 10 232 6.4 9.7 0.00 0.00 0.00 89 1013.0
20260502071021 11 214 9.7 14.5 0.00 0.00 0.00 86 1013.1
20260502070029 11 236 12.9 19.3 0.00 0.00 0.00 86 1013.1
20260502065035 11 226 11.3 16.1 0.00 0.00 0.00 86 1013.1
20260502064025 11 223 12.9 17.7 0.00 0.00 0.00 86 1013.1
20260502063033 11 207 9.7 11.3 0.00 0.00 0.00 86 1013.1
20260502062022 11 232 9.7 12.9 0.00 0.00 0.00 86 1013.1
20260502061049 11 218 12.9 16.1 0.00 0.00 0.00 86 1013.1
20260502060021 11 223 8.0 11.3 0.00 0.00 0.00 86 1013.1
20260502055026 11 213 11.3 16.1 0.00 0.00 0.00 85 1013.1
20260502054025 11 213 11.3 16.1 0.00 0.00 0.00 85 1013.1
20260502053024 11 208 12.9 17.7 0.00 0.00 0.00 85 1013.1
20260502052032 11 218 12.9 16.1 0.00 0.00 0.00 85 1013.1
20260502051040 11 217 12.9 17.7 0.00 0.00 0.00 85 1013.1
20260502050029 11 229 12.9 16.1 0.00 0.00 0.00 85 1013.1
20260502045117 11 233 11.3 14.5 0.00 0.00 0.00 85 1013.1
20260502044026 12 220 11.3 14.5 0.00 0.00 0.00 84 1013.1
20260502043054 12 206 12.9 19.3 0.00 0.00 0.00 84 1013.1
20260502042024 12 215 9.7 17.7 0.00 0.00 0.00 83 1013.1
20260502041031 12 213 14.5 17.7 0.00 0.00 0.00 83 1012.3
20260502040021 12 220 16.1 20.9 0.00 0.00 0.00 83 1012.1
20260502035028 12 208 16.1 20.9 0.00 0.00 0.00 83 1012.1
20260502034027 12 219 16.1 20.9 0.00 0.00 0.00 82 1012.1
20260502033045 12 207 16.1 20.9 0.00 0.00 0.00 82 1012.1
20260502032054 12 202 17.7 20.9 0.00 0.00 0.00 82 1012.1
20260502031023 13 217 14.5 20.9 0.00 0.00 0.00 81 1012.1
20260502030051 13 232 12.9 16.1 0.00 0.00 0.00 80 1012.1
20260502025021 13 233 12.9 17.7 0.00 0.00 0.00 78 1012.1
20260502024028 14 239 17.7 25.7 0.00 0.00 0.00 77 1011.3
20260502023037 14 206 19.3 27.4 0.00 0.00 0.00 76 1011.1
20260502022024 15 224 19.3 29.0 0.00 0.00 0.00 75 1011.1
20260502021052 15 221 20.9 29.0 0.00 0.00 0.00 74 1011.1
20260502020041 15 223 19.3 24.1 0.00 0.00 0.00 73 1011.1
20260502015029 16 213 19.3 27.4 0.00 0.00 0.00 72 1011.1
20260502014029 16 212 17.7 25.7 0.00 0.00 0.00 70 1011.1
20260502013021 17 221 16.1 19.3 0.00 0.00 0.00 69 1011.1
20260502012033 17 218 17.7 24.1 0.00 0.00 0.00 68 1011.1
20260502011022 17 230 20.9 27.4 0.00 0.00 0.00 67 1011.1
20260502010030 18 224 14.5 20.9 0.00 0.00 0.00 66 1011.1
20260502005022 18 233 16.1 25.7 0.00 0.00 0.00 66 1011.1
20260502004031 18 229 19.3 20.9 0.00 0.00 0.00 65 1011.1
20260502003021 19 224 14.5 19.3 0.00 0.00 0.00 63 1011.1
20260502002024 20 231 12.9 19.3 0.00 0.00 0.00 62 1011.1
20260502001032 20 233 16.1 24.1 0.00 0.00 0.00 60 1011.2
20260502000022 21 241 17.7 24.1 0.00 0.00 0.00 59 1011.2
20260501235030 21 229 17.7 24.1 0.00 0.00 0.00 57 1011.2
20260501234021 22 240 16.1 24.1 0.00 0.00 0.00 57 1011.2
20260501233021 22 238 14.5 20.9 0.00 0.00 0.00 54 1011.2
20260501232034 22 223 12.9 16.1 0.00 0.00 0.00 56 1011.2
20260501231023 22 231 19.3 24.1 0.00 0.00 0.00 54 1011.2
20260501230031 23 237 12.9 19.3 0.00 0.00 0.00 53 1011.2
20260501225021 23 203 6.4 11.3 0.00 0.00 0.00 53 1012.2
20260501224028 22 186 8.0 12.9 0.00 0.00 0.00 54 1012.2
20260501223022 23 232 12.9 17.7 0.00 0.00 0.00 52 1012.2
20260501222025 23 186 6.4 9.7 0.00 0.00 0.00 50 1012.2
20260501221054 23 136 4.8 6.4 0.00 0.00 0.00 49 1012.2
20260501220023 23 228 8.0 9.7 0.00 0.00 0.00 50 1012.2
20260501215031 22 152 4.8 9.7 0.00 0.00 0.00 55 1012.2
20260501214021 22 70 4.8 8.0 0.00 0.00 0.00 55 1012.2
20260501213043 22 50 6.4 9.7 0.00 0.00 0.00 55 1012.2
20260501212037 22 143 6.4 8.0 0.00 0.00 0.00 52 1012.2
20260501211026 22 107 4.8 8.0 0.00 0.00 0.00 54 1013.0
20260501210053 22 331 4.8 9.7 0.00 0.00 0.00 55 1013.2
20260501205103 21 81 6.4 9.7 0.00 0.00 0.00 57 1013.2
20260501204030 21 168 6.4 11.3 0.00 0.00 0.00 56 1013.2
20260501203020 21 71 6.4 9.7 0.00 0.00 0.00 57 1013.2
20260501202029 21 161 8.0 12.9 0.00 0.00 0.00 57 1013.2
20260501201038 21 154 3.2 8.0 0.00 0.00 0.00 58 1013.2
20260501200026 20 187 6.4 12.9 0.00 0.00 0.00 60 1013.2
20260501195034 20 164 8.0 14.5 0.00 0.00 0.00 60 1014.2
20260501194023 20 144 6.4 9.7 0.00 0.00 0.00 60 1014.2
20260501193106 20 180 6.4 11.3 0.00 0.00 0.00 60 1014.2
20260501192021 20 212 8.0 11.3 0.00 0.00 0.00 60 1014.2
20260501191029 20 121 4.8 8.0 0.00 0.00 0.00 61 1014.2
20260501190036 19 165 6.4 9.7 0.00 0.00 0.00 63 1014.2
20260501185025 20 168 6.4 9.7 0.00 0.00 0.00 62 1014.2
20260501184053 18 225 6.4 11.3 0.00 0.00 0.00 64 1014.2
20260501183043 18 173 8.0 11.3 0.00 0.00 0.00 66 1014.2
20260501182052 18 167 4.8 6.4 0.00 0.00 0.00 65 1014.2
20260501181022 17 192 4.8 11.3 0.00 0.00 0.00 67 1014.2
20260501180028 17 194 9.7 14.5 0.00 0.00 0.00 66 1014.2
20260501175036 18 211 8.0 9.7 0.00 0.00 0.00 62 1014.2
20260501174025 18 183 8.0 11.3 0.00 0.00 0.00 65 1014.2
20260501173029 17 224 8.0 11.3 0.00 0.00 0.00 67 1014.2
20260501172022 18 169 6.4 9.7 0.00 0.00 0.00 68 1014.2
20260501171031 17 143 6.4 11.3 0.00 0.00 0.00 70 1014.2
20260501170022 16 161 8.0 11.3 0.00 0.00 0.00 73 1014.2
20260501165028 16 147 8.0 9.7 0.00 0.00 0.00 71 1014.2
20260501164038 16 167 6.4 9.7 0.00 0.00 0.00 74 1014.2
20260501163025 16 115 8.0 11.3 0.00 0.00 0.00 75 1014.2
20260501162053 15 155 8.0 11.3 0.00 0.00 0.00 77 1014.2